DLH1456 EDDF-LATI

Flight info

Callsign DLH1456
Flight time 1h 43m
Altitude 37000
Route CINDY8S/18 CINDY Z74 LAMPU DCT NOMBO Y161 MAH DCT VAVOR DCT RADIZ DCT DEGUM DCT ALIVO DCT KULEN DCT SIRMI DCT NERRA DCT BALHA DCT TIBRI DCT PETAK
Aircraft A320/M-SDE3FGHIRWY/LB1

Departure

Time 2026-05-08 15:37
Airport Frankfurt Main Airport (EDDF)

Arrival

Time 2026-05-08 17:21
Airport Tirana International Airport Mother Teresa (LATI)
Time Latitude Longitude Altitude Speed Heading
2026-05-08 14:54 50.04908 8.59106 365 ft 0 kts 340°
2026-05-08 15:23 50.04888 8.59117 366 ft 4 kts 340°
2026-05-08 15:24 50.04863 8.59132 368 ft 4 kts 340°
2026-05-08 15:24 50.04838 8.59146 370 ft 4 kts 340°
2026-05-08 15:24 50.04823 8.59154 368 ft 1 kts 340°
2026-05-08 15:29 50.04824 8.59154 368 ft 0 kts 340°
2026-05-08 15:29 50.04826 8.59151 368 ft 2 kts 329°
2026-05-08 15:29 50.04811 8.59067 371 ft 10 kts 244°
2026-05-08 15:30 50.04768 8.58939 371 ft 18 kts 245°
2026-05-08 15:30 50.04723 8.58769 370 ft 16 kts 246°
2026-05-08 15:30 50.04670 8.58559 371 ft 25 kts 249°
2026-05-08 15:30 50.04608 8.58304 370 ft 26 kts 249°
2026-05-08 15:31 50.04539 8.58018 366 ft 29 kts 249°
2026-05-08 15:31 50.04467 8.57716 366 ft 31 kts 249°
2026-05-08 15:31 50.04395 8.57414 364 ft 28 kts 249°
2026-05-08 15:31 50.04326 8.57123 366 ft 29 kts 250°
2026-05-08 15:32 50.04258 8.56824 361 ft 29 kts 250°
2026-05-08 15:32 50.04184 8.56518 360 ft 32 kts 249°
2026-05-08 15:32 50.04108 8.56184 358 ft 34 kts 248°
2026-05-08 15:32 50.04027 8.55858 352 ft 31 kts 249°
2026-05-08 15:33 50.03949 8.55537 351 ft 32 kts 250°
2026-05-08 15:33 50.03869 8.55203 352 ft 34 kts 249°
2026-05-08 15:33 50.03787 8.54860 351 ft 35 kts 250°
2026-05-08 15:33 50.03710 8.54536 345 ft 26 kts 249°
2026-05-08 15:34 50.03644 8.54257 347 ft 28 kts 251°
2026-05-08 15:34 50.03570 8.53958 336 ft 30 kts 250°
2026-05-08 15:34 50.03497 8.53646 337 ft 32 kts 249°
2026-05-08 15:34 50.03419 8.53311 335 ft 34 kts 251°
2026-05-08 15:35 50.03332 8.52962 332 ft 35 kts 249°
2026-05-08 15:35 50.03274 8.52728 333 ft 16 kts 249°
2026-05-08 15:35 50.03223 8.52597 334 ft 13 kts 200°
2026-05-08 15:35 50.03181 8.52596 335 ft 0 kts 176°
2026-05-08 15:36 50.03134 8.52600 335 ft 31 kts 177°
2026-05-08 15:36 50.02650 8.52610 335 ft 104 kts 180°
2026-05-08 15:37 50.01726 8.52619 333 ft 159 kts 180°
2026-05-08 15:37 50.00531 8.52550 790 ft 170 kts 180°
2026-05-08 15:37 49.99364 8.52532 1547 ft 171 kts 179°
2026-05-08 15:37 49.98113 8.52560 2040 ft 190 kts 176°
2026-05-08 15:38 49.96793 8.53181 2361 ft 211 kts 145°
2026-05-08 15:38 49.95795 8.54937 2761 ft 226 kts 117°
2026-05-08 15:38 49.95023 8.57100 3527 ft 230 kts 118°
2026-05-08 15:38 49.94283 8.59312 4393 ft 232 kts 109°
2026-05-08 15:39 49.93977 8.61834 5008 ft 249 kts 94°
2026-05-08 15:39 49.93868 8.64621 5569 ft 266 kts 93°
2026-05-08 15:39 49.93608 8.67488 6405 ft 272 kts 108°
2026-05-08 15:39 49.92776 8.70147 6900 ft 276 kts 127°
2026-05-08 15:40 49.91401 8.72197 7143 ft 276 kts 146°
2026-05-08 15:40 49.89804 8.73912 7943 ft 280 kts 145°
2026-05-08 15:40 49.88372 8.75990 8802 ft 286 kts 130°
2026-05-08 15:40 49.87291 8.78613 9650 ft 292 kts 120°
2026-05-08 15:41 49.86309 8.81410 10366 ft 302 kts 119°
2026-05-08 15:41 49.85326 8.84426 10652 ft 325 kts 117°
2026-05-08 15:41 49.84322 8.87665 11101 ft 340 kts 116°
2026-05-08 15:41 49.83306 8.91013 11808 ft 346 kts 116°
2026-05-08 15:42 49.82278 8.94403 12556 ft 350 kts 116°
2026-05-08 15:42 49.81227 8.97830 13325 ft 354 kts 116°
2026-05-08 15:42 49.80158 9.01289 14052 ft 358 kts 116°
2026-05-08 15:42 49.79070 9.04777 14727 ft 362 kts 116°
2026-05-08 15:43 49.77964 9.08298 15490 ft 366 kts 116°
2026-05-08 15:43 49.76845 9.11853 16114 ft 370 kts 116°
2026-05-08 15:43 49.75712 9.15447 16758 ft 374 kts 116°
2026-05-08 15:43 49.74431 9.18961 17402 ft 377 kts 126°
2026-05-08 15:44 49.72780 9.22127 18045 ft 380 kts 132°
2026-05-08 15:44 49.71033 9.25212 18655 ft 383 kts 132°
2026-05-08 15:44 49.69269 9.28325 19223 ft 387 kts 132°
2026-05-08 15:44 49.67490 9.31463 19796 ft 389 kts 132°
2026-05-08 15:45 49.65698 9.34620 20368 ft 392 kts 132°
2026-05-08 15:45 49.63894 9.37798 20953 ft 395 kts 132°
2026-05-08 15:45 49.61976 9.40851 21506 ft 397 kts 140°
2026-05-08 15:45 49.59752 9.43376 22068 ft 398 kts 150°
2026-05-08 15:46 49.57362 9.45566 22617 ft 401 kts 151°
2026-05-08 15:46 49.54951 9.47765 22935 ft 403 kts 151°
2026-05-08 15:46 49.52537 9.49964 23209 ft 404 kts 151°
2026-05-08 15:46 49.50114 9.52169 23487 ft 406 kts 151°
2026-05-08 15:47 49.47677 9.54388 23748 ft 407 kts 151°
2026-05-08 15:47 49.45236 9.56608 23983 ft 409 kts 151°
2026-05-08 15:47 49.42782 9.58839 24218 ft 410 kts 151°
2026-05-08 15:47 49.40319 9.61079 24449 ft 412 kts 151°
2026-05-08 15:48 49.35374 9.65587 24937 ft 416 kts 149°
2026-05-08 15:48 49.33063 9.68281 25178 ft 419 kts 139°
2026-05-08 15:48 49.30979 9.71425 25428 ft 421 kts 136°
2026-05-08 15:49 49.28904 9.74612 25675 ft 423 kts 136°
2026-05-08 15:49 49.26821 9.77801 25926 ft 424 kts 136°
2026-05-08 15:49 49.24726 9.80996 26184 ft 426 kts 137°
2026-05-08 15:49 49.22642 9.84233 26435 ft 428 kts 133°
2026-05-08 15:50 49.20699 9.87693 26694 ft 430 kts 131°
2026-05-08 15:50 49.18784 9.91223 26957 ft 432 kts 130°
2026-05-08 15:50 49.16891 9.94788 27223 ft 433 kts 130°
2026-05-08 15:50 49.14994 9.98385 27496 ft 435 kts 130°
2026-05-08 15:51 49.13090 10.01983 27759 ft 437 kts 130°
2026-05-08 15:51 49.11169 10.05582 28032 ft 438 kts 130°
2026-05-08 15:51 49.09231 10.09184 28311 ft 440 kts 131°
2026-05-08 15:51 49.07282 10.12793 28593 ft 442 kts 131°
2026-05-08 15:52 49.05345 10.16364 28869 ft 443 kts 131°
2026-05-08 15:52 49.03351 10.20033 29158 ft 445 kts 131°
2026-05-08 15:52 49.01373 10.23672 29457 ft 447 kts 131°
2026-05-08 15:52 48.99387 10.27325 29739 ft 449 kts 131°
2026-05-08 15:53 48.97392 10.30987 30035 ft 450 kts 131°
2026-05-08 15:53 48.95389 10.34659 30307 ft 452 kts 131°
2026-05-08 15:53 48.93374 10.38349 30554 ft 454 kts 131°
2026-05-08 15:53 48.91350 10.42051 30802 ft 456 kts 131°
2026-05-08 15:54 48.89317 10.45764 31053 ft 458 kts 131°
2026-05-08 15:54 48.87275 10.49493 31301 ft 460 kts 131°
2026-05-08 15:54 48.85228 10.53230 31562 ft 461 kts 131°
2026-05-08 15:54 48.83198 10.56926 31816 ft 462 kts 131°
2026-05-08 15:55 48.81136 10.60677 32071 ft 463 kts 131°
2026-05-08 15:55 48.77003 10.68173 32602 ft 463 kts 131°
2026-05-08 15:55 48.74937 10.71908 32860 ft 463 kts 131°
2026-05-08 15:56 48.72868 10.75646 33126 ft 463 kts 131°
2026-05-08 15:56 48.70800 10.79380 33388 ft 463 kts 132°
2026-05-08 15:56 48.68729 10.83111 33648 ft 463 kts 132°
2026-05-08 15:56 48.66659 10.86840 33933 ft 462 kts 132°
2026-05-08 15:57 48.64591 10.90557 34182 ft 462 kts 132°
2026-05-08 15:57 48.62519 10.94279 34411 ft 462 kts 132°
2026-05-08 15:57 48.60449 10.97995 34640 ft 462 kts 132°
2026-05-08 15:57 48.58375 11.01712 34873 ft 463 kts 132°
2026-05-08 15:58 48.56299 11.05423 35110 ft 463 kts 133°
2026-05-08 15:58 48.54222 11.09128 35131 ft 461 kts 134°
2026-05-08 15:58 48.52153 11.12813 35368 ft 460 kts 134°
2026-05-08 15:58 48.50089 11.16490 35612 ft 459 kts 134°
2026-05-08 15:59 48.48023 11.20170 35857 ft 459 kts 134°
2026-05-08 15:59 48.45961 11.23830 36103 ft 458 kts 134°
2026-05-08 15:59 48.43897 11.27485 36353 ft 457 kts 134°
2026-05-08 15:59 48.41837 11.31127 36605 ft 456 kts 134°
2026-05-08 16:00 48.39781 11.34761 36862 ft 455 kts 134°
2026-05-08 16:00 48.37728 11.38386 37033 ft 457 kts 134°
2026-05-08 16:00 48.33598 11.45672 37067 ft 458 kts 134°
2026-05-08 16:01 48.29462 11.52940 37058 ft 457 kts 134°
2026-05-08 16:01 48.26023 11.58966 37060 ft 457 kts 134°
2026-05-08 16:02 48.21884 11.66203 37061 ft 457 kts 135°
2026-05-08 16:02 48.17745 11.73421 37060 ft 456 kts 135°
2026-05-08 16:03 48.13604 11.80621 37064 ft 456 kts 135°
2026-05-08 16:03 48.09448 11.87823 37047 ft 458 kts 135°
2026-05-08 16:04 48.05280 11.95032 37068 ft 458 kts 135°
2026-05-08 16:04 48.01117 12.02217 37079 ft 457 kts 135°
2026-05-08 16:05 47.96949 12.09382 37074 ft 457 kts 135°
2026-05-08 16:05 47.92677 12.16357 37070 ft 452 kts 143°
2026-05-08 16:06 47.87896 12.22385 37066 ft 450 kts 144°
2026-05-08 16:06 47.83108 12.28375 37061 ft 449 kts 144°
2026-05-08 16:07 47.78323 12.34345 37059 ft 449 kts 144°
2026-05-08 16:07 47.73538 12.40307 37053 ft 449 kts 144°
2026-05-08 16:08 47.68755 12.46269 37048 ft 449 kts 144°
2026-05-08 16:08 47.63965 12.52206 37052 ft 449 kts 145°
2026-05-08 16:09 47.58949 12.57637 37057 ft 446 kts 150°
2026-05-08 16:09 47.53848 12.62850 37055 ft 446 kts 150°
2026-05-08 16:10 47.48747 12.68076 37060 ft 446 kts 150°
2026-05-08 16:10 47.43640 12.73302 37067 ft 447 kts 150°
2026-05-08 16:11 47.38522 12.78502 37057 ft 446 kts 150°
2026-05-08 16:11 47.33400 12.83689 37067 ft 447 kts 150°
2026-05-08 16:12 47.28267 12.88881 37066 ft 447 kts 150°
2026-05-08 16:12 47.23138 12.94061 37071 ft 448 kts 150°
2026-05-08 16:13 47.18007 12.99228 37069 ft 448 kts 150°
2026-05-08 16:13 47.12867 13.04393 37062 ft 447 kts 150°
2026-05-08 16:14 47.07730 13.09544 37056 ft 447 kts 150°
2026-05-08 16:14 47.02591 13.14694 37051 ft 448 kts 150°
2026-05-08 16:15 46.97442 13.19837 37048 ft 448 kts 150°
2026-05-08 16:15 46.92312 13.24931 37050 ft 449 kts 150°
2026-05-08 16:16 46.87137 13.30052 37053 ft 449 kts 150°
2026-05-08 16:16 46.81962 13.35174 37053 ft 449 kts 150°
2026-05-08 16:17 46.77626 13.39471 37058 ft 450 kts 150°
2026-05-08 16:17 46.71614 13.45422 37055 ft 449 kts 150°
2026-05-08 16:18 46.66433 13.50523 37049 ft 449 kts 151°
2026-05-08 16:18 46.61248 13.55597 37056 ft 449 kts 151°
2026-05-08 16:19 46.56064 13.60668 37048 ft 449 kts 151°
2026-05-08 16:19 46.50890 13.65726 37055 ft 449 kts 151°
2026-05-08 16:20 46.45719 13.70794 37051 ft 449 kts 149°
2026-05-08 16:20 46.40715 13.76248 37050 ft 451 kts 146°
2026-05-08 16:21 46.35821 13.81940 37044 ft 451 kts 146°
2026-05-08 16:21 46.30912 13.87585 37041 ft 450 kts 147°
2026-05-08 16:22 46.25979 13.93100 37038 ft 450 kts 147°
2026-05-08 16:22 46.21008 13.98604 37039 ft 450 kts 147°
2026-05-08 16:23 46.16041 14.04113 37030 ft 450 kts 147°
2026-05-08 16:23 46.11079 14.09629 37034 ft 451 kts 147°
2026-05-08 16:24 46.06117 14.15140 37030 ft 450 kts 147°
2026-05-08 16:24 46.01154 14.20634 37020 ft 450 kts 148°
2026-05-08 16:25 45.96178 14.26109 37026 ft 450 kts 148°
2026-05-08 16:25 45.91205 14.31567 37023 ft 450 kts 148°
2026-05-08 16:26 45.86230 14.37028 37038 ft 450 kts 148°
2026-05-08 16:26 45.81257 14.42475 37040 ft 450 kts 148°
2026-05-08 16:27 45.76281 14.47919 37040 ft 450 kts 148°
2026-05-08 16:27 45.71310 14.53345 37038 ft 449 kts 148°
2026-05-08 16:28 45.66378 14.58719 37036 ft 448 kts 148°
2026-05-08 16:28 45.61405 14.64104 37035 ft 449 kts 148°
2026-05-08 16:29 45.56392 14.69523 37033 ft 448 kts 148°
2026-05-08 16:29 45.51445 14.74864 37031 ft 449 kts 148°
2026-05-08 16:30 45.46502 14.80320 37029 ft 450 kts 147°
2026-05-08 16:30 45.41576 14.85822 37030 ft 450 kts 147°
2026-05-08 16:31 45.36636 14.91301 37035 ft 450 kts 147°
2026-05-08 16:31 45.31686 14.96757 37040 ft 451 kts 147°
2026-05-08 16:32 45.26723 15.02195 37046 ft 451 kts 148°
2026-05-08 16:32 45.21755 15.07628 37048 ft 451 kts 148°
2026-05-08 16:33 45.16788 15.13064 37050 ft 451 kts 147°
2026-05-08 16:33 45.11892 15.18639 37046 ft 452 kts 145°
2026-05-08 16:34 45.07088 15.24393 37042 ft 452 kts 144°
2026-05-08 16:34 45.02270 15.30130 37052 ft 453 kts 145°
2026-05-08 16:35 44.97430 15.35807 37047 ft 452 kts 146°
2026-05-08 16:35 44.92582 15.41455 37050 ft 452 kts 146°
2026-05-08 16:36 44.87734 15.47090 37044 ft 452 kts 146°
2026-05-08 16:36 44.82887 15.52727 37044 ft 451 kts 146°
2026-05-08 16:37 44.78046 15.58352 37034 ft 451 kts 146°
2026-05-08 16:37 44.73201 15.63961 37034 ft 451 kts 146°
2026-05-08 16:38 44.68349 15.69569 37034 ft 451 kts 146°
2026-05-08 16:38 44.63490 15.75157 37035 ft 452 kts 146°
2026-05-08 16:39 44.58626 15.80741 37037 ft 452 kts 146°
2026-05-08 16:39 44.53758 15.86331 37034 ft 452 kts 146°
2026-05-08 16:40 44.48893 15.91910 37036 ft 452 kts 146°
2026-05-08 16:40 44.44016 15.97478 37035 ft 452 kts 146°
2026-05-08 16:41 44.39137 16.03034 37036 ft 452 kts 146°
2026-05-08 16:42 44.31800 16.11362 37024 ft 453 kts 146°
2026-05-08 16:42 44.26903 16.16913 37023 ft 454 kts 146°
2026-05-08 16:43 44.21998 16.22462 37023 ft 454 kts 146°
2026-05-08 16:43 44.17110 16.27966 37026 ft 454 kts 146°
2026-05-08 16:44 44.12154 16.33413 37024 ft 453 kts 148°
2026-05-08 16:44 44.07068 16.38586 37021 ft 453 kts 150°
2026-05-08 16:45 44.01940 16.43686 37022 ft 453 kts 150°
2026-05-08 16:45 43.96822 16.48837 37024 ft 455 kts 149°
2026-05-08 16:46 43.91711 16.54025 37027 ft 455 kts 149°
2026-05-08 16:46 43.86597 16.59217 37028 ft 456 kts 149°
2026-05-08 16:47 43.82343 16.63519 37037 ft 456 kts 149°
2026-05-08 16:47 43.77206 16.68686 37031 ft 457 kts 150°
2026-05-08 16:48 43.72058 16.73848 37024 ft 457 kts 150°
2026-05-08 16:48 43.66916 16.79008 37018 ft 457 kts 150°
2026-05-08 16:49 43.61760 16.84173 37019 ft 458 kts 150°
2026-05-08 16:49 43.56628 16.89294 37014 ft 458 kts 150°
2026-05-08 16:50 43.51459 16.94441 37009 ft 459 kts 150°
2026-05-08 16:50 43.46278 16.99586 37004 ft 459 kts 150°
2026-05-08 16:51 43.41093 17.04734 37002 ft 460 kts 150°
2026-05-08 16:51 43.35896 17.09881 36998 ft 461 kts 150°
2026-05-08 16:52 43.30692 17.15022 36993 ft 461 kts 150°
2026-05-08 16:52 43.25470 17.20171 36991 ft 462 kts 150°
2026-05-08 16:53 43.17625 17.27888 36987 ft 463 kts 150°
2026-05-08 16:53 43.12408 17.32994 36991 ft 464 kts 151°
2026-05-08 16:54 43.07110 17.38173 36988 ft 465 kts 151°
2026-05-08 16:54 43.01844 17.43315 36989 ft 465 kts 151°
2026-05-08 16:55 42.96606 17.48420 36987 ft 466 kts 151°
2026-05-08 16:55 42.91441 17.53808 36987 ft 474 kts 142°
2026-05-08 16:56 42.89235 17.57181 36985 ft 481 kts 131°
2026-05-08 16:56 42.87362 17.60996 36983 ft 485 kts 127°
2026-05-08 16:56 42.83667 17.68689 36962 ft 484 kts 132°
2026-05-08 16:57 42.81699 17.72250 36715 ft 485 kts 133°
2026-05-08 16:57 42.79687 17.75786 36459 ft 484 kts 134°
2026-05-08 16:57 42.77601 17.79390 36202 ft 485 kts 134°
2026-05-08 16:57 42.75503 17.82979 35945 ft 485 kts 134°
2026-05-08 16:58 42.73401 17.86567 35695 ft 485 kts 134°
2026-05-08 16:58 42.71303 17.90161 35395 ft 485 kts 134°
2026-05-08 16:58 42.69196 17.93783 34419 ft 492 kts 133°
2026-05-08 16:58 42.67086 17.97427 33878 ft 488 kts 133°
2026-05-08 16:59 42.65001 18.01041 33237 ft 484 kts 133°
2026-05-08 16:59 42.62935 18.04624 32634 ft 480 kts 133°
2026-05-08 16:59 42.60879 18.08178 32012 ft 477 kts 133°
2026-05-08 16:59 42.58838 18.11692 31409 ft 473 kts 133°
2026-05-08 17:00 42.56806 18.15181 30811 ft 470 kts 133°
2026-05-08 17:00 42.54782 18.18649 30221 ft 467 kts 133°
2026-05-08 17:00 42.52773 18.22089 29579 ft 464 kts 133°
2026-05-08 17:00 42.50778 18.25502 29017 ft 458 kts 133°
2026-05-08 17:01 42.48813 18.28864 28459 ft 453 kts 133°
2026-05-08 17:01 42.46863 18.32197 27910 ft 448 kts 133°
2026-05-08 17:01 42.44934 18.35485 27381 ft 443 kts 133°
2026-05-08 17:01 42.43030 18.38726 26866 ft 438 kts 133°
2026-05-08 17:02 42.41143 18.41937 26362 ft 433 kts 133°
2026-05-08 17:02 42.39274 18.45112 25834 ft 429 kts 133°
2026-05-08 17:02 42.37421 18.48258 25336 ft 425 kts 133°
2026-05-08 17:02 42.35585 18.51371 24826 ft 422 kts 133°
2026-05-08 17:03 42.33760 18.54458 24324 ft 419 kts 133°
2026-05-08 17:03 42.31948 18.57521 23792 ft 416 kts 133°
2026-05-08 17:03 42.30142 18.60575 23268 ft 413 kts 132°
2026-05-08 17:03 42.28358 18.63588 22672 ft 411 kts 133°
2026-05-08 17:04 42.26584 18.66584 22191 ft 407 kts 133°
2026-05-08 17:04 42.24821 18.69559 21712 ft 403 kts 133°
2026-05-08 17:04 42.23072 18.72509 21184 ft 401 kts 133°
2026-05-08 17:04 42.21357 18.75396 20630 ft 400 kts 133°
2026-05-08 17:05 42.19631 18.78297 20156 ft 397 kts 133°
2026-05-08 17:05 42.17909 18.81187 19704 ft 393 kts 133°
2026-05-08 17:05 42.16191 18.84065 19225 ft 391 kts 132°
2026-05-08 17:05 42.14489 18.86915 18672 ft 391 kts 132°
2026-05-08 17:06 42.12802 18.89743 18298 ft 383 kts 132°
2026-05-08 17:06 42.11139 18.92533 17563 ft 379 kts 132°
2026-05-08 17:06 42.09509 18.95261 17093 ft 369 kts 132°
2026-05-08 17:06 42.07920 18.97912 16644 ft 359 kts 133°
2026-05-08 17:07 42.06368 19.00494 16202 ft 350 kts 133°
2026-05-08 17:07 42.04857 19.03009 15769 ft 342 kts 133°
2026-05-08 17:07 42.03379 19.05474 15351 ft 335 kts 133°
2026-05-08 17:07 42.01916 19.07912 14937 ft 335 kts 133°
2026-05-08 17:08 42.00454 19.10346 14517 ft 335 kts 133°
2026-05-08 17:08 41.98987 19.12783 14094 ft 336 kts 133°
2026-05-08 17:08 41.97514 19.15223 13657 ft 336 kts 133°
2026-05-08 17:08 41.96042 19.17662 13203 ft 336 kts 133°
2026-05-08 17:09 41.94580 19.20088 12785 ft 333 kts 132°
2026-05-08 17:09 41.93125 19.22498 12361 ft 331 kts 133°
2026-05-08 17:09 41.91677 19.24892 11927 ft 329 kts 132°
2026-05-08 17:09 41.90236 19.27271 11491 ft 328 kts 132°
2026-05-08 17:10 41.88798 19.29645 11060 ft 326 kts 132°
2026-05-08 17:10 41.87369 19.32004 10612 ft 325 kts 132°
2026-05-08 17:10 41.85947 19.34350 10190 ft 323 kts 132°
2026-05-08 17:10 41.84552 19.36656 10020 ft 313 kts 132°
2026-05-08 17:11 41.83210 19.38877 9870 ft 301 kts 132°
2026-05-08 17:11 41.81901 19.41042 9527 ft 297 kts 132°
2026-05-08 17:11 41.80608 19.43172 9013 ft 293 kts 132°
2026-05-08 17:11 41.79322 19.45279 8458 ft 290 kts 132°
2026-05-08 17:12 41.78079 19.47316 8158 ft 278 kts 132°
2026-05-08 17:12 41.76902 19.49251 8011 ft 258 kts 132°
2026-05-08 17:12 41.75797 19.51071 7665 ft 247 kts 132°
2026-05-08 17:12 41.74703 19.52864 7183 ft 244 kts 132°
2026-05-08 17:13 41.73647 19.54586 6701 ft 241 kts 132°
2026-05-08 17:13 41.72586 19.56315 6180 ft 240 kts 132°
2026-05-08 17:13 41.71519 19.58057 5525 ft 243 kts 132°
2026-05-08 17:13 41.70451 19.59804 5044 ft 239 kts 132°
2026-05-08 17:14 41.69431 19.61475 4868 ft 227 kts 132°
2026-05-08 17:14 41.68437 19.63102 4756 ft 225 kts 132°
2026-05-08 17:14 41.67480 19.64669 4644 ft 208 kts 131°
2026-05-08 17:14 41.66598 19.66113 4577 ft 195 kts 132°
2026-05-08 17:15 41.65745 19.67502 4493 ft 193 kts 133°
2026-05-08 17:15 41.64727 19.68623 4297 ft 188 kts 154°
2026-05-08 17:15 41.63487 19.69123 4096 ft 187 kts 175°
2026-05-08 17:15 41.62195 19.69293 3857 ft 186 kts 175°
2026-05-08 17:16 41.60905 19.69465 3614 ft 186 kts 175°
2026-05-08 17:16 41.59618 19.69637 3377 ft 186 kts 175°
2026-05-08 17:16 41.58334 19.69809 3128 ft 185 kts 174°
2026-05-08 17:16 41.57054 19.69980 2881 ft 185 kts 174°
2026-05-08 17:17 41.55769 19.70152 2635 ft 186 kts 174°
2026-05-08 17:17 41.54481 19.70323 2385 ft 186 kts 174°
2026-05-08 17:17 41.53189 19.70496 2144 ft 186 kts 174°
2026-05-08 17:17 41.51901 19.70668 1896 ft 186 kts 174°
2026-05-08 17:18 41.50612 19.70839 1661 ft 185 kts 174°
2026-05-08 17:18 41.49351 19.71008 1423 ft 176 kts 174°
2026-05-08 17:18 41.48215 19.71159 1228 ft 154 kts 174°
2026-05-08 17:18 41.47200 19.71294 1029 ft 141 kts 174°
2026-05-08 17:19 41.46248 19.71421 840 ft 135 kts 174°
2026-05-08 17:19 41.45323 19.71544 673 ft 133 kts 174°
2026-05-08 17:19 41.44410 19.71665 468 ft 131 kts 174°
2026-05-08 17:19 41.43503 19.71785 349 ft 131 kts 174°
2026-05-08 17:20 41.42599 19.71898 156 ft 129 kts 175°
2026-05-08 17:20 41.41785 19.72011 123 ft 94 kts 174°
2026-05-08 17:20 41.41269 19.72082 129 ft 63 kts 174°
2026-05-08 17:20 41.40880 19.72137 133 ft 51 kts 175°
2026-05-08 17:21 41.40692 19.72137 134 ft 15 kts 217°
2026-05-08 17:21 41.40666 19.72003 132 ft 16 kts 257°
2026-05-08 17:21 41.40635 19.71852 132 ft 18 kts 254°
2026-05-08 17:21 41.40673 19.71778 132 ft 8 kts 348°
2026-05-08 17:22 41.40724 19.71764 132 ft 7 kts 349°
2026-05-08 17:22 41.40824 19.71746 132 ft 23 kts 352°
2026-05-08 17:22 41.40988 19.71707 128 ft 25 kts 353°
2026-05-08 17:22 41.41168 19.71684 129 ft 27 kts 355°
2026-05-08 17:23 41.41363 19.71661 127 ft 29 kts 355°
2026-05-08 17:23 41.41533 19.71636 125 ft 22 kts 354°
2026-05-08 17:23 41.41692 19.71613 121 ft 24 kts 353°
2026-05-08 17:23 41.41841 19.71595 123 ft 19 kts 355°
2026-05-08 17:24 41.41912 19.71574 121 ft 5 kts 302°
2026-05-08 17:24 41.41911 19.71531 123 ft 4 kts 261°
2026-05-08 17:24 41.41911 19.71525 123 ft 0 kts 264°
2026-05-08 17:25 41.41910 19.71520 123 ft 0 kts 264°